Regional Weather Roundup
Issued by NWS Upton, NY

Current Version | Previous Version | Text Only | Print | Product List | Glossary On
Versions: 1 2 3 4 5 6 7 8 9 10 11 12 13 14 15 16 17 18 19 20 21 22 23 24 25 26 27
000 ASUS41 KOKX 240805 RWROKX REGIONAL WEATHER ROUNDUP NATIONAL WEATHER SERVICE NEW YORK NY 400 AM EDT FRI OCT 24 2014 NOTE: "FAIR" INDICATES FEW OR NO CLOUDS BELOW 12,000 FEET WITH NO SIGNIFICANT WEATHER AND/OR OBSTRUCTIONS TO VISIBILITY. NYZ071-072-176-178-NJZ106-104-240900- NEW YORK CITY METRO AREA CITY SKY/WX TMP DP RH WIND PRES REMARKS CENTRAL PARK MOCLDY 52 42 69 VRB6 29.81R LAGUARDIA APRT CLOUDY 52 44 74 NW17 29.77R KENNEDY INTL MOCLDY 52 43 71 NW15 29.78R NEWARK/LIBERTY MOCLDY 51 43 74 NW9 29.79S BRNX BOT. GARD N/A 50 43 76 NW6 29.81R TETERBORO MOCLDY 51 42 71 NW5 29.79R $$ NYZ177-179-078>081-240900- LONG ISLAND NEW YORK CITY SKY/WX TMP DP RH WIND PRES REMARKS FARMINGDALE CLOUDY 52 45 77 N13G20 29.75R ISLIP CLOUDY 51 46 83 NW16 29.71S SHIRLEY CLOUDY 51 47 86 NW12 29.72S WESTHAMPTON CLOUDY 52 47 83 NW10 29.71F MONTAUK POINT N/A 54 49 83 N13G21 29.68S $$ NYZ052-065-067-240900- HUDSON VALLEY CITY SKY/WX TMP DP RH WIND PRES REMARKS WHITE PLAINS MOCLDY 49 44 83 NW9 29.76R NEWBURGH CLOUDY 48 45 87 CALM 29.80 MONTGOMERY LGT RAIN 49 42 77 W6 29.78S POUGHKEEPSIE CLOUDY 50 44 80 CALM 29.78F ALBANY DRIZZLE 46 44 93 N5 29.81F FOG $$ NJZ001-105-106-008-010-013-015-019>022-104-240900- NEW JERSEY CITY SKY/WX TMP DP RH WIND PRES REMARKS NEWARK/LIBERTY MOCLDY 51 43 74 NW9 29.79S TETERBORO MOCLDY 51 42 71 NW5 29.79R CALDWELL PTCLDY 50 41 71 NW5 29.80R MORRISTOWN CLEAR 50 43 76 NW5 29.80R SOMERVILLE CLOUDY 52 43 71 NW5 29.80R SUSSEX MOCLDY 51 42 71 N8 29.81R ANDOVER N/A 49 42 77 N6 29.82R TRENTON CLOUDY 51 43 74 NW5 29.81R MILLVILLE CLEAR 49 44 83 W3 29.83R ATLANTIC CITY PTCLDY 48 44 86 W6 29.82R WRIGHTSTOWN PTCLDY 49 44 82 NW6 29.80R TOMS RIVER CLOUDY 52 45 76 NW6 29.80R BELMAR CLOUDY 50 41 71 W10 29.78F $$ PAZ047>061-062-071-240900- EASTERN PENNSYLVANIA CITY SKY/WX TMP DP RH WIND PRES REMARKS PHILADELPHIA PTCLDY 56 45 66 NW5 29.84R ALLENTOWN CLOUDY 54 43 66 NW15G24 29.84R SCRANTON CLOUDY 51 43 74 NW10 29.87R $$ CTZ002-004>006-009-010-012-RIZ004-006-007-MAZ004-011-015-240900- SOUTHERN NEW ENGLAND IN CT CITY SKY/WX TMP DP RH WIND PRES REMARKS BRADLEY INTL LGT RAIN 50 44 80 NW8 29.72S HARTFORD CLOUDY 50 44 80 NW7 29.72S DANBURY CLOUDY 49 42 77 N5 29.77S WTRBRY/OXFORD CLOUDY 46 39 76 N14G21 29.74S BRIDGEPORT CLOUDY 51 45 79 NW9 29.73R MERIDEN CLOUDY 50 43 77 NW12G21 29.72S NEW HAVEN MOCLDY 52 44 74 N13 29.71S CHESTER CLOUDY 48 46 93 N10G20 29.70R GROTON CLOUDY 51 48 89 NW14 29.67R WILLIMANTIC CLOUDY 51 46 83 NW13 29.69F IN RI CITY SKY/WX TMP DP RH WIND PRES REMARKS PROVIDENCE CLOUDY 50 47 89 N12 29.66S BLOCK ISLAND CLOUDY 52 46 82 N13G23 29.65R WESTERLY CLOUDY 52 48 86 N13 29.67R IN MA CITY SKY/WX TMP DP RH WIND PRES REMARKS BOSTON LGT RAIN 47 47 100 N10 29.66S FOG WORCESTER CLOUDY 47 45 93 NW9 29.68S WESTFIELD CLOUDY 49 44 83 N10 29.73S PROVINCETOWN CLOUDY 52 0 11 N18G30 29.59S NANTUCKET LGT RAIN 54 52 93 N24G30 29.54S $$ ANZ330-335-338-340-345-350-353-355-240900- COASTAL MARINE OBSERVATIONS STATION/POSITION TIME SKY/WX TEMP WIND PRES VSBY WAVE AIR SEA DIR/SP/G HT/PER (UTC) (F) (DEG/KT/KT) (MB) (MI) (FT/S) NY HARB ENTRANCE NOT AVBL 4S FIRE IS 0800 63 N/A 3/ 9 20S FIRE ISLAND 0800 55 63 330/ 21/ 25 1006.2 6/ 6 23SW MTP 0800 N/A 6/ 6 HUDSON CANYON 0800 57 66 330/ 21/ 25 1005.1 9/ 7 EXECUTION ROCKS 0800 53 62 340/ 14/ 19 N/A WESTERN LI SOUND 0800 53 330/ 16/ 19 N/A 2/ 3 CENTRAL LI SOUND 0700 53 63 320/ 16/ 19 N/A 2/ 3 EASTERN LI SOUND 0700 54 63 340/ 14/ 19 N/A ROBBINS REEF 0800 52 320/ 14/ 18 1007.1 $$ >>>>>>>>>>>>>>>>>>>>>>>>>>>> KEY <<<<<<<<<<<<<<<<<<<<<<<<<<< > < > SKY/WX - SKY CONDITION/PRESENT WEATHER < > TMP - TEMPERATURE IN FAHRENHEIT < > DP - DEWPOINT IN FAHRENHEIT < > RH - RELATIVE HUMIDITY IN PERCENT < > WIND - DIRECTION AND SPEED IN MPH < > PRES - MEAN SEA LEVEL PRESSURE IN INCHES OF HG < > WCI - WIND CHILL INDEX < > VSB - VISIBILITY IN MILES < > HX - HEAT INDEX < > TC - TEMPERATURE IN CELSIUS < > VRB - VARIABLE WIND DIRECTION < > < >>>>>>>>>>>>>>>>>>>>>>>>>>>> KEY <<<<<<<<<<<<<<<<<<<<<<<<<<<

USA.gov is the U.S. government's official web portal to all federal, state and local government web resources and services.